Location: Bonny Doon Airfield
(37.0704°N, 122.1252°W)
Time: 18:34:40
(UTC-08:00)

Tiangong 2 - Pass Details

Date: 14 October 2017
Orbit: 386 x 390 km, 42.8° (Epoch: 14 December)

Event Time Altitude Azimuth Distance (km) Brightness Sun altitude
Exits shadow 05:02:38 16° 48° (NE) 1,111 4.0 -27.2°
Drops below altitude 10° 05:03:30 10° 56° (ENE) 1,422 4.8 -27.0°
Sets 05:05:43 0° 67° (ENE) 2,280 6.2 -26.6°
